Regional Weather Roundup
Issued by NWS Midland/Odessa, TX

Skip options and go directly to product.
Home | Oldest Version | Previous Version | Current Version | All | Text Only | Save Text | Print | Product List | Glossary Off

Skip product version selection by date and time.   

332
ASUS44 KMAF 301710
RWRMAF
MIDLAND AREA WEATHER ROUNDUP
NATIONAL WEATHER SERVICE MIDLAND TX
1200 PM CDT THU OCT 30 2014

...IN SOUTHWEST TEXAS AND SOUTHEAST NEW MEXICO...

CITY           SKY/WX    TMP DP  RH WIND       PRES   REMARKS
ALPINE         SUNNY     77  47  35 CALM      30.29S
ANDREWS        FAIR      74  53  47 NW9       30.16F
ARTESIA        NOT AVBL
BIG SPRING     SUNNY     74  62  67 S10       30.17S
CARLSBAD         N/A    N/A N/A N/A MISG      30.21S
DRYDEN           N/A     70  62  76 CALM      30.14F
FORT STOCKTON  SUNNY     75  55  49 CALM      30.17S
GUAD PASS      SUNNY     64  47  53 SW6       30.32R
HOBBS          SUNNY     68  36  30 NW15      30.21R
MARFA          SUNNY     70  54  56 CALM      30.29F
MIDLAND AIRPK  SUNNY     75  59  57 W9        30.16S
MIDLAND INTL   SUNNY     75  59  57 SW8       30.15S
ODESSA         SUNNY     75  56  51 W10       30.17R
PECOS          SUNNY     69  55  60 NW6       30.17S
PRESIDIO       FAIR      74  56  53 S3        30.18F
SEMINOLE       SUNNY     70  38  31 N10       30.19R
SNYDER         CLOUDY    66  60  81 SW9       30.16S
WINK           SUNNY     72  54  53 CALM      30.15F
$$
...OTHER STATIONS IN TEXAS...

CITY           SKY/WX    TMP DP  RH WIND       PRES   REMARKS
ABILENE        SUNNY     75  60  59 SW13      30.15S
AMARILLO       SUNNY     66  30  26 NE23      30.26R
AUSTIN         PTSUNNY   72  57  59 S3        30.15F
BROWNSVILLE    SUNNY     85  68  56 CALM      30.09F
CORPUS CHRISTI PTSUNNY   83  70  64 N5        30.09F
DALLAS FTW     MOSUNNY   71  46  40 S10       30.15F
DEL RIO        SUNNY     77  66  68 S8        30.11F
EL PASO        SUNNY     69  40  34 N7        30.24S
HOUSTON INT    SUNNY     72  50  45 VRB6      30.15S
LUBBOCK        SUNNY     68  47  46 N16       30.18R
SAN ANGELO     SUNNY     76  60  57 SW16      30.14S
SAN ANTONIO    MOSUNNY   74  63  68 S5        30.14F
WACO           MOSUNNY   69  47  45 SE9       30.17F
WICHITA FALLS  NOT AVBL
$$
...OTHER LOCATIONS IN NEW MEXICO...

CITY           SKY/WX    TMP DP  RH WIND       PRES   REMARKS
ALAMAGORDO     NOT AVBL
ALBUQUERQUE    SUNNY     58  15  18 N10       30.35F
CANNON AFB     SUNNY     66  29  24 NE25      30.27R
CLOVIS         SUNNY     68  30  24 NE29      30.30R
HOLLOMAN AFB   SUNNY     65  37  35 CALM      30.24F
ROSWELL        SUNNY     69  35  28 N18G25    30.26R
RUIDOSO        SUNNY     63  19  19 NW9       30.40S
SANTA FE       SUNNY     59  13  16 N9        30.39S
TRUTH OR CONSE SUNNY     67  27  22 NE7       30.30S
TUCUMCARI      SUNNY     68  24  19 NE22G30   30.29S
$$

USA.gov is the U.S. government's official web portal to all federal, state and local government web resources and services.